Location: *
(52.2997°N, 2.5728°W)
Time: 14:19:57
(UTC+00:00)

Daily predictions for brighter satellites

Satellite Brightness Start Highest point End
(mag) Time Altitude Azimuth Time Altitude Azimuth Time Altitude Azimuth
NOSS 3-4 (A) 3.9 18:43:27 10° NW 18:50:14 68° NE 18:57:41 10° ESE
NOSS 3-4 (C) 3.9 18:43:33 10° NW 18:50:20 67° NE 18:57:46 10° ESE
Cosmos 407 Rocket 4.3 18:48:15 10° NNW 18:52:54 32° NE 18:57:30 10° ESE
COSMOS 2428 2.7 18:50:40 10° NNW 18:56:23 77° ENE 19:02:04 10° SE
Cosmos 2219 Rocket 2.2 18:51:07 10° NNW 18:56:44 76° ENE 19:02:20 10° SE
Cosmos 2322 4.2 18:53:45 10° NW 18:59:28 67° WSW 19:05:07 10° SSE
USA 116 4.1 18:56:33 10° NNE 19:00:52 75° WNW 19:04:37 10° SSW
NOSS 3-3 (A) 4.1 18:56:24 10° SSW 19:02:14 56° SE 19:08:48 10° NE
NOSS 3-3 (C) 4.1 18:56:31 10° SSW 19:02:21 55° SE 19:08:54 10° NE
HJ-1C 3.3 18:59:29 10° SSE 19:02:50 74° ENE 19:06:15 10° N
Cosmos 1743 3.5 19:00:32 10° SSW 19:04:19 59° WNW 19:08:10 10° N
Cosmos 1536 Rocket 3.7 19:01:16 10° NNW 19:05:38 79° W 19:09:56 10° S
CZ-2D R/B 3.6 19:02:23 10° S 19:06:11 68° WSW 19:09:59 10° NNW
NOAA 11 4.3 19:00:42 10° SSE 19:06:13 84° WSW 19:11:45 10° NNW
Cosmos 2360 Rocket 3.7 19:02:37 10° NW 19:07:49 38° WSW 19:12:59 10° S
Cosmos 1025 Rocket 3.1 19:04:06 10° NNW 19:08:24 85° W 19:12:40 10° S
Meteor 1-12 Rocket 4.4 19:03:08 10° S 19:08:42 55° E 19:14:13 10° NNE
Cosmos 2327 Rocket 4.5 19:02:59 10° N 19:09:17 75° ENE 19:15:28 10° SSE
SPOT 3 Rocket 3.8 19:04:25 10° SE 19:09:22 49° ENE 19:14:20 10° N
Nadezhda 1 Rocket 4.0 19:08:11 10° SSE 19:14:04 56° E 19:20:01 10° NNE
YAOGAN 1 4.5 19:11:28 10° SSW 19:15:25 34° W 19:19:23 10° NNW
Timation 2 Rocket 4.1 19:10:18 10° SSW 19:16:45 61° ESE 19:22:58 10° NE
Cosmos 1892 Rocket 4.4 19:12:46 10° N 19:16:47 31° ENE 19:20:44 10° SE
Cosmos 1975 3.4 19:13:00 10° SSW 19:16:57 61° WNW 19:20:56 10° N
Meteor 2-15 Rocket 4.5 19:12:28 10° S 19:18:30 61° E 19:24:35 10° NNE
USA 234 3.6 19:12:05 10° ENE 19:18:34 65° NNW 19:25:03 10° W
Okean 1-7 Rocket 4.4 19:14:34 10° N 19:18:36 33° ENE 19:22:38 10° SE
Meteor 2-15 4.4 19:13:31 10° S 19:19:38 75° E 19:25:48 10° NNE
NOSS 0 Rocket 4.0 19:13:26 10° NNW 19:19:39 73° NE 19:25:52 10° SE
Cosmos 1842 4.1 19:17:40 10° NNW 19:21:34 54° W 19:25:25 10° S
Cosmos 1140 Rocket 4.2 19:18:14 10° NNW 19:23:05 37° NE 19:27:07 14° ESE
Cosmos 2219 4.1 19:18:48 10° SSE 19:23:28 26° ESE 19:28:09 10° NE
Cosmos 2227 Rocket 3.6 19:21:45 10° SE 19:25:10 16° E 19:28:34 10° ENE
ADEOS Rocket 4.0 19:19:07 10° NNE 19:25:40 36° E 19:32:36 10° SSE
EO 1 Delta rocket 4.4 19:20:58 10° SSE 19:27:44 74° ENE 19:33:05 10° N
Meteor 2-9 Rocket 4.3 19:22:12 10° S 19:27:59 90° SE 19:33:40 10° NNE
Cosmos 1437 Rocket 4.2 19:27:42 10° NNE 19:30:37 20° ENE 19:32:05 17° E
CZ-2C R/B 3.8 19:26:34 10° NNE 19:30:57 50° E 19:35:17 10° S
RESURS DK-1 4.5 19:30:45 10° N 19:33:16 15° NNE 19:35:39 10° ENE
ATLAS 2AS CENTAUR R/B 3.2 19:26:15 10° NW 19:33:58 67° SW 19:41:03 10° SSE
Cosmos 2297 Rocket 3.3 19:32:01 10° SSE 19:36:05 21° E 19:40:10 10° NE
ARGOS 3.3 19:31:43 10° SE 19:36:58 58° ENE 19:42:16 10° N
Cosmos 2151 Rocket 4.4 19:33:54 10° SSW 19:38:13 55° WNW 19:42:33 10° N
H-2A R/B 2.0 19:35:53 10° SSE 19:40:45 63° ENE 19:45:45 10° N
Cosmos 405 Rocket 3.6 19:40:22 19° SE 19:41:54 26° E 19:45:02 10° NE
Cosmos 676 Rocket 4.5 19:39:39 10° NNW 19:44:45 44° NE 19:48:03 20° ESE
Meteor 1-24 Rocket 4.5 19:39:53 10° N 19:45:07 36° ENE 19:48:37 19° ESE
Cosmos 1544 3.0 19:41:47 10° SSW 19:45:22 84° W 19:49:00 10° N
Cosmos 2341 Rocket 4.0 19:39:11 10° N 19:45:29 71° ENE 19:51:41 10° SSE
SAR-Lupe-2 3.5 19:42:27 10° NNE 19:46:03 89° WNW 19:49:38 10° SSW
Cosmos 1461 2.6 19:42:27 10° SSW 19:46:25 68° SE 19:50:22 10° NE
ASTEX 1 3.3 19:44:40 10° N 19:49:36 84° E 19:54:30 10° S
Cosmos 2333 Rocket 3.1 19:44:11 10° NW 19:49:39 49° WSW 19:55:08 10° S
Cosmos 2181 Rocket 4.3 19:46:40 10° SSE 19:52:34 46° E 19:58:35 10° NNE
FREGAT/IRIS 4.4 19:52:50 10° SSW 19:55:22 30° W 19:57:55 10° NNW
Meteor 2-5 Rocket 3.9 19:53:43 10° N 19:59:26 58° ENE 20:03:38 19° SSE
Cosmos 1441 Rocket 3.6 19:56:50 10° SSW 20:00:38 64° WNW 20:04:23 10° N
SL-24 R/B 4.4 19:58:07 22° SE 20:00:53 56° ENE 20:05:45 10° N
MetOp-A 4.2 19:57:57 18° SE 20:01:54 62° ENE 20:07:12 10° N
Cosmos 1190 Rocket 4.0 19:56:39 10° NNW 20:02:00 86° ENE 20:05:53 19° SSE
Cosmos 1544 Rocket 4.3 20:00:48 27° SE 20:02:13 33° E 20:06:14 10° NNE
Cosmos 2237 Rocket 2.2 19:56:36 10° NNW 20:02:21 87° WSW 20:06:39 18° SSE
Cosmos 1455 Rocket 3.5 20:00:39 22° SSE 20:03:01 39° E 20:07:12 10° NNE
ERBS 2.8 20:00:01 10° WNW 20:03:21 52° NNE 20:04:33 33° ENE
Cosmos 1805 4.5 20:04:51 24° ENE 20:04:51 24° ENE 20:07:30 10° NNE
Cosmos 389 Rocket 2.5 20:01:16 10° NNW 20:04:43 76° W 20:07:00 20° S
In-Cosmos 22 4.0 19:59:23 10° NNW 20:04:45 86° ENE 20:09:45 12° SSE
CZ-4C R/B 4.0 20:00:39 10° WNW 20:05:56 32° N 20:12:06 10° NE
SL-08 RB Rocket 3.7 20:03:31 19° SSE 20:06:49 73° ENE 20:11:31 10° N
Cosmos 2218 Rocket 4.1 20:00:37 10° N 20:06:59 64° ENE 20:11:47 18° SSE
Cosmos 1980 3.9 20:05:32 10° NNW 20:11:12 73° WSW 20:15:25 18° SSE
Cosmos 1023 Rocket 4.4 20:06:33 10° NNW 20:11:46 81° ENE 20:14:44 26° SSE
Cosmos 2366 rocket 4.0 20:06:57 10° N 20:13:19 66° ENE 20:17:48 20° SSE
Cosmos 1674 2.9 20:10:19 10° N 20:13:56 46° ENE 20:14:32 42° ESE
SL-8 R/B 4.0 20:12:46 10° WSW 20:17:24 50° S 20:18:53 36° ESE
SJ-6B 4.1 20:14:18 10° S 20:18:13 41° W 20:22:08 10° NNW
Cosmos 864 Rocket 4.4 20:12:37 10° N 20:18:50 69° ENE 20:22:56 23° SSE
Cosmos 1707 4.1 20:15:13 10° NNW 20:18:53 39° W 20:22:32 10° SSW
Cosmos 1626 Rocket 3.9 20:14:55 10° N 20:19:05 44° ENE 20:19:57 39° ESE
Resurs 1-3 3.6 20:16:52 20° S 20:19:50 80° WSW 20:24:16 10° NNW
Meteor 1-4 Rocket 2.7 20:16:52 10° NNW 20:20:26 68° W 20:22:05 29° S
SPOT 5 4.2 20:21:03 22° ENE 20:21:51 23° ENE 20:25:42 10° N
Resurs 01 Rocket 1.5 20:19:38 28° SSE 20:21:59 85° ENE 20:26:27 10° NNW
Okean 1 Rocket 4.3 20:19:10 10° SW 20:23:18 43° WNW 20:27:30 10° N
CZ-2C R/B 3.1 20:20:05 23° SSE 20:23:29 85° ENE 20:29:02 10° NNW
USA 186 4.1 20:21:24 10° SSW 20:24:16 26° W 20:27:12 10° NW
SL-8 Rocket 4.0 20:18:31 10° N 20:24:46 87° W 20:29:57 15° S
KORONAS-FOTON 3.7 20:25:49 10° N 20:29:36 61° ENE 20:29:55 58° ESE
SL-14 R/B 4.4 20:27:09 10° N 20:30:22 30° ENE 20:30:22 30° ENE
SL-16 R/B 2.2 20:25:53 10° NNW 20:31:34 69° NE 20:33:46 38° SE
DMSP B5D2-2 4.3 20:26:57 10° NNE 20:32:06 49° E 20:33:46 36° SSE
Cosmos 2056 Rocket 3.5 20:27:08 10° S 20:32:30 65° ESE 20:37:52 10° NNE
Cosmos 407 Rocket 4.2 20:30:10 10° NNW 20:35:07 49° WSW 20:38:35 19° S
Cosmos 1602 Rocket 3.6 20:34:39 10° N 20:38:59 56° ENE 20:39:20 54° E
Cosmos 1959 Rocket 4.5 20:33:21 10° NNW 20:39:30 83° W 20:43:39 22° S
SPOT 1/Viking Rocket 4.1 20:38:50 37° E 20:39:45 40° ENE 20:44:34 10° N
Cosmos 2219 Rocket 4.3 20:35:53 10° NW 20:40:07 22° WSW 20:44:21 10° SSW
Cosmos 1766 3.3 20:44:58 64° ENE 20:44:58 64° ENE 20:48:34 10° NNE
Cosmos 1624 Rocket 3.8 20:39:37 10° SSW 20:44:49 81° ESE 20:50:03 10° NNE
Cosmos 1741 Rocket 4.3 20:39:49 10° NNW 20:45:05 53° ENE 20:46:11 45° E
Cosmos 2082 4.1 20:50:21 42° E 20:50:21 42° E 20:55:12 10° NE
IGS 5A 4.3 20:51:33 37° NE 20:51:33 37° NE 20:54:59 10° N
BREEZE M DEB (TANK) 2.6 20:51:52 10° W 20:54:23 58° SSW 20:54:23 58° SSW
CZ-2C R/B 2.9 20:50:14 10° NNE 20:55:37 49° E 20:55:49 49° ESE
Cosmos 1954 Rocket 4.3 20:50:48 10° NNW 20:56:00 63° WSW 20:57:48 39° S
ERS-1 Rocket 3.1 21:00:29 54° E 21:00:50 55° ENE 21:05:46 10° N
USA 234 3.5 20:57:41 28° E 21:01:15 63° N 21:07:43 10° WNW
Terra 2.8 21:02:05 32° NE 21:02:05 32° NE 21:06:02 10° N
Spot 2 Rocket 3.6 21:00:20 45° S 21:01:51 73° WSW 21:06:56 10° NNW
Cosmos 1140 Rocket 4.4 21:00:05 10° NW 21:04:57 42° WSW 21:07:09 27° SSW
Cosmos 1437 Rocket 3.6 21:03:28 10° NNW 21:07:07 43° W 21:07:30 41° WSW
Cosmos 2219 3.5 21:01:27 10° SW 21:07:11 68° NW 21:12:57 10° NNE
Cosmos 2227 Rocket 2.0 21:02:41 10° SSW 21:08:21 83° ESE 21:14:04 10° NNE
Meteor 1-21 Rocket 4.5 21:04:56 10° N 21:10:42 54° ENE 21:11:15 52° E
ADEOS Rocket 3.9 21:04:28 10° N 21:11:29 64° WNW 21:19:02 10° SW
RESURS DK-1 2.8 21:07:59 10° NNW 21:11:33 56° N 21:11:33 56° N
MetOp-B 4.4 21:15:06 44° SSW 21:16:39 63° WSW 21:21:59 10° NNW
Cosmos 1626 3.4 21:13:43 10° N 21:16:03 36° N 21:16:03 36° N
Cosmos 405 Rocket 4.5 21:15:27 15° WSW 21:17:50 29° WNW 21:21:10 10° N
Cosmos 2297 Rocket 2.2 21:13:48 10° SSW 21:19:28 82° WNW 21:25:11 10° NNE
H-2A R/B 4.1 21:16:50 10° SW 21:20:39 22° W 21:24:32 10° NW
Cosmos 1452 Rocket 3.9 21:28:21 51° NE 21:28:21 51° NE 21:32:23 10° NNE
Cosmos 1934 Rocket 3.9 21:23:12 10° N 21:29:16 63° ENE 21:29:35 62° E
Cosmos 1943 3.5 21:30:31 10° NNW 21:36:08 54° NE 21:36:12 54° NE
Meteor 2-12 Rocket 4.3 21:31:32 10° NNW 21:37:39 82° W 21:38:28 68° SSW
CARTOSAT-1 4.4 21:45:57 47° NNW 21:45:57 47° NNW 21:49:06 10° NNW
Cosmos 2237 Rocket 4.4 21:41:56 10° WNW 21:45:36 18° W 21:48:30 12° SW
Nadezhda 3 Rocket 3.9 21:51:04 67° SW 21:51:53 80° WNW 21:58:08 10° N
CZ-4C R/B 3.8 21:50:13 10° NW 21:56:10 37° NNE 21:59:38 25° ENE
Resurs 01 Rocket 4.2 21:57:12 11° WSW 21:59:05 14° W 22:01:25 10° NW
SPOT 5 3.4 22:00:17 55° NW 22:00:17 55° NW 22:04:25 10° NNW
Cosmos 1605 Rocket 4.0 21:58:36 10° N 22:04:48 75° NE 22:04:48 75° NE
MOS 1 Rocket 4.2 22:02:04 10° NNE 22:05:50 47° NNE 22:05:50 47° NNE
Cosmos 1821 Rocket 4.5 22:02:06 10° NNW 22:08:04 50° W 22:08:55 47° WSW
Cosmos 1603 3.9 22:05:01 10° NNW 22:09:58 65° WNW 22:09:58 65° WNW
SL-16 R/B 3.7 22:10:40 10° NW 22:15:13 25° WSW 22:15:39 25° WSW
CZ-2C R/B 4.1 22:30:49 10° N 22:35:46 35° WNW 22:37:20 30° W
Terra 3.4 22:40:59 32° NW 22:40:59 32° NW 22:43:59 10° NNW
USA 234 3.3 22:45:01 70° W 22:45:01 70° W 22:50:47 10° WNW
Cosmos 2173 Rocket 4.5 22:41:10 10° N 22:46:25 56° NNE 22:46:25 56° NNE
Cosmos 2227 Rocket 4.1 22:48:19 10° W 22:53:05 27° NW 22:57:54 10° NNE
Cosmos 1459 Rocket 4.5 22:56:07 10° N 23:00:44 53° N 23:00:44 53° N
Cosmos 2297 Rocket 4.3 22:59:54 10° W 23:04:25 24° NW 23:08:56 10° NNE
Mayak 1.4 23:12:44 10° N 23:13:40 16° N 23:13:40 16° N
ATLAS CENTAUR R/B 4.4 23:22:56 12° NE 23:22:56 12° NE 23:23:23 10° NE
Cosmos 2263 Rocket 3.5 23:23:14 35° NNE 23:23:14 35° NNE 23:26:27 10° NNE
Cosmos 1833 Rocket 4.3 23:27:07 10° NNW 23:31:51 28° NE 23:31:51 28° NE
CZ-4C R/B 3.0 23:38:51 10° NW 23:44:45 67° NNW 23:44:45 67° NNW
USA 267 4.3 23:44:33 10° ENE 23:47:58 34° ENE 23:47:58 34° ENE
SL-16 R/B 4.4 23:50:32 20° ENE 23:52:08 22° NE 23:56:40 10° N
